Weather History for PAGY - February, 2014

Change the Weather History Date:

Thursday, February 20, 2014

  Actual Average Record
Temperature  
Mean Temperature 16 °F -  
Max Temperature 30 °F 35 °F 47 °F (1970)
Min Temperature 3 °F 26 °F 3 °F (2014)
Degree Days  
Heating Degree Days 48    
Moisture  
Dew Point 5 °F    
Average Humidity 68    
Maximum Humidity 84    
Minimum Humidity 40    
Precipitation  
Precipitation 0.00 in - - ()
Sea Level Pressure  
Sea Level Pressure 29.94 in    
Wind  
Wind Speed 5 mph (NE)    
Max Wind Speed 10 mph    
Max Gust Speed -    
Visibility 9 miles    
Events      
Averages and records for this station are not official NWS values.
T = Trace of Precipitation, MM = Missing Value Source: NWS Daily Summary

Daily Weather History Graph

Daily Weather History Graph

Search for Another Location

Airport or City:

Trip Planner

Search our weather history database for the weather conditions in past years. The results will help you decide how hot, cold, wet, or windy it might be!

Date:

Astronomy

Feb. 20, 2014 Rise Set
Actual Time 7:23 AM AKST 5:07 PM AKST
Civil Twilight 6:41 AM AKST 5:50 PM AKST
Nautical Twilight 5:53 AM AKST 6:37 PM AKST
Astronomical Twilight 5:06 AM AKST 7:25 PM AKST
Moon No Moon Rise 8:44 AM AKST (2/20)
Length of Visible Light 11h 08m
Length of Day
9h 44m
Waning Gibbous, 69% of the Moon is Illuminated
Feb 20
Waning Gibbous
Feb 22
Last Quarter
Feb 28
New
Mar 8
First Quarter
Mar 16
Full

Hourly Weather History & Observations

Time (AKST) Temp. Windchill Dew Point Humidity Pressure Visibility Wind Dir Wind Speed Gust Speed Precip Events Conditions
12:53 AM 6.1 °F -2.8 °F 1.9 °F 83% 29.75 in 9.0 mi NE 4.6 mph - N/A   Clear
1:53 AM 5.0 °F -5.6 °F 1.0 °F 84% 29.76 in 10.0 mi NE 5.8 mph - N/A   Clear
3:53 AM 7.0 °F -3.3 °F 1.9 °F 80% 29.77 in 8.0 mi NE 5.8 mph - N/A   Clear
4:53 AM 5.0 °F -4.1 °F 1.0 °F 84% 29.78 in 10.0 mi NE 4.6 mph - N/A   Clear
5:53 AM 3.9 °F -6.9 °F -0.0 °F 84% 29.79 in 10.0 mi NE 5.8 mph - N/A   Clear
6:53 AM 3.9 °F -6.9 °F -0.0 °F 84% 29.80 in 10.0 mi NE 5.8 mph - N/A   Clear
7:53 AM 5.0 °F -2.1 °F 1.0 °F 84% 29.82 in 5.0 mi Variable 3.5 mph - N/A   Clear
8:53 AM 10.9 °F - 6.1 °F 81% 29.85 in 10.0 mi Calm Calm - N/A   Clear
9:53 AM 16.0 °F 10.4 °F 10.0 °F 77% 29.86 in 10.0 mi NNE 3.5 mph - N/A   Clear
10:53 AM 21.9 °F 11.0 °F 6.1 °F 51% 29.88 in 10.0 mi NE 10.4 mph - N/A   Clear
11:53 AM 25.0 °F 14.8 °F 6.1 °F 45% 29.90 in 10.0 mi NE 10.4 mph - N/A   Clear
12:53 PM 27.0 °F 17.3 °F 9.0 °F 47% 29.91 in 10.0 mi NE 10.4 mph - N/A   Clear
1:53 PM 28.9 °F 21.1 °F 8.1 °F 41% 29.93 in 10.0 mi NE 8.1 mph - N/A   Clear
2:53 PM 30.0 °F - 8.1 °F 40% 29.96 in 10.0 mi Calm Calm - N/A   Clear
3:53 PM 26.1 °F 18.4 °F 8.1 °F 47% 29.97 in 10.0 mi ENE 6.9 mph - N/A   Clear
4:53 PM 24.1 °F 14.4 °F 7.0 °F 48% 30.01 in 10.0 mi NE 9.2 mph - N/A   Clear
5:53 PM 21.0 °F 14.6 °F 8.1 °F 57% 30.04 in 10.0 mi NNE 4.6 mph - N/A   Clear
6:53 PM 21.0 °F - 8.1 °F 57% 30.07 in 10.0 mi Calm Calm - N/A   Clear
7:53 PM 16.0 °F 10.4 °F 7.0 °F 68% 30.10 in 10.0 mi NNE 3.5 mph - N/A   Clear
8:53 PM 12.9 °F 6.9 °F 7.0 °F 77% 30.13 in 7.0 mi NE 3.5 mph - N/A   Clear
9:53 PM 12.0 °F - 7.0 °F 80% 30.15 in 5.0 mi Calm Calm - N/A   Haze
10:53 PM 12.0 °F - 6.1 °F 77% 30.18 in 10.0 mi Calm Calm - N/A   Overcast
11:53 PM 10.9 °F - 5.0 °F 77% 30.20 in 10.0 mi Calm Calm - N/A   Mostly Cloudy